Tracking 19247 objects as of 25-Sep-2018
HD Live streaming from Space Station
objects crossing your sky now

FENGYUN 1C DEB

Track FENGYUN 1C DEB now!
10-day predictions


NORAD ID: 31771
Int'l Code: 1999-025CFW
Perigee: 755.6 km
Apogee: 790.7 km
Inclination: 102.8 °
Period: 100.2 minutes
Semi major axis: 7144 km
RCS: 0.0073 m2 (small)
Launch date: May 10, 1999
Source: People's Republic of China (PRC)
Launch site: Taiyaun Space Center, China (TSC)

Note: This is SATELLITE DEBRIS
aabbcc
Your satellite tracking list
Your tracking list is empty




NASA's NSSDC Master Catalog

Two Line Element Set (TLE):
1 31771U 99025CFW 18267.23791040 +.00001442 +00000-0 +50517-3 0  9996
2 31771 102.8051 060.0138 0024619 318.1010 041.8276 14.37728761272669
Source of the keplerian elements: AFSPC